Вернуться в каталог

STARLINK-31294

АктивенСвязьVLEO
NORAD 58949·PAYLOAD·🇺🇸 United States

Запущен Feb 10, 2024 с Vandenberg Space Force Base

Loading…

Ближайшие Пролёты (ближайшие 24 часа)

TLE

СвежийSource: CelesTrak SupGP

Эпоха: Sep 14, 2026, 22:47 UTC

1 58949C 24027U   26257.94979167 -.00074633  00000+0 -22048-2 0  2573
2 58949  53.1578 149.8701 0001399  86.4935 292.5667 15.34431794    12

Отслеживайте STARLINK-31294 в реальном времени с AllMySat

Download on the App Store